| time (UTC) | temp C | wind direction | speed KPH | gust KPH | rain 1hr cm | rain 24hr cm | rain mn cm | humidity % | barometer mb |
| 20260510214432 | 11 | 328 | 0.0 | 0.0 | 0.00 | 0.00 | 0.00 | 72 | 1020.8 |
| 20260510214205 | 11 | 351 | 0.0 | 0.0 | 0.00 | 0.00 | 0.00 | 72 | 1020.8 |
| 20260510213429 | 11 | 351 | 0.0 | 0.0 | 0.00 | 0.00 | 0.00 | 72 | 1020.8 |
| 20260510212929 | 11 | 35 | 0.0 | 9.7 | 0.00 | 0.00 | 0.00 | 72 | 1020.8 |
| 20260510212426 | 11 | 255 | 0.0 | 9.7 | 0.00 | 0.00 | 0.00 | 72 | 1020.6 |
| 20260510212130 | 11 | 0 | 0.0 | 0.0 | 0.00 | 0.00 | 0.00 | 72 | 1020.6 |
| 20260510211358 | 12 | 28 | 0.0 | 0.0 | 0.00 | 0.00 | 0.00 | 71 | 1020.5 |
| 20260510210829 | 12 | 352 | 0.0 | 0.0 | 0.00 | 0.00 | 0.00 | 71 | 1020.4 |
| 20260510210341 | 12 | 328 | 0.0 | 0.0 | 0.00 | 0.00 | 0.00 | 70 | 1020.5 |
| 20260510205819 | 12 | 28 | 0.0 | 0.0 | 0.00 | 0.00 | 0.00 | 68 | 1020.3 |
| 20260510205316 | 13 | 33 | 0.0 | 0.0 | 0.00 | 0.00 | 0.00 | 67 | 1020.4 |
| 20260510204802 | 13 | 350 | 0.0 | 0.0 | 0.00 | 0.00 | 0.00 | 67 | 1020.3 |
| 20260510204301 | 13 | 349 | 0.0 | 0.0 | 0.00 | 0.00 | 0.00 | 66 | 1020.2 |
| 20260510204034 | 13 | 4 | 0.0 | 0.0 | 0.00 | 0.00 | 0.00 | 65 | 1020.2 |
| 20260510203530 | 13 | 15 | 0.0 | 0.0 | 0.00 | 0.00 | 0.00 | 65 | 1020.3 |
| 20260510202754 | 13 | 347 | 0.0 | 8.0 | 0.00 | 0.00 | 0.00 | 65 | 1020.2 |
| 20260510202255 | 14 | 341 | 0.0 | 8.0 | 0.00 | 0.00 | 0.00 | 64 | 1020.2 |
| 20260510201801 | 14 | 10 | 1.6 | 11.3 | 0.00 | 0.00 | 0.00 | 64 | 1020.2 |
| 20260510201753 | 14 | 318 | 0.0 | 11.3 | 0.00 | 0.00 | 0.00 | 64 | 1020.1 |
| 20260510200755 | 14 | 347 | 4.8 | 17.7 | 0.00 | 0.00 | 0.00 | 62 | 1020.1 |
| 20260510200248 | 15 | 5 | 4.8 | 17.7 | 0.00 | 0.00 | 0.00 | 61 | 1020.2 |
| 20260510195745 | 15 | 332 | 4.8 | 17.7 | 0.00 | 0.00 | 0.00 | 62 | 1020.3 |
| 20260510195243 | 15 | 7 | 6.4 | 19.3 | 0.00 | 0.00 | 0.00 | 61 | 1020.5 |
| 20260510195010 | 15 | 289 | 4.8 | 19.3 | 0.00 | 0.00 | 0.00 | 61 | 1020.3 |
| 20260510194443 | 15 | 350 | 4.8 | 14.5 | 0.00 | 0.00 | 0.00 | 61 | 1020.3 |
| 20260510193938 | 15 | 7 | 6.4 | 14.5 | 0.00 | 0.00 | 0.00 | 62 | 1020.2 |
| 20260510193158 | 15 | 341 | 6.4 | 16.1 | 0.00 | 0.00 | 0.00 | 60 | 1020.2 |
| 20260510192633 | 15 | 340 | 4.8 | 16.1 | 0.00 | 0.00 | 0.00 | 59 | 1020.3 |
| 20260510192131 | 15 | 255 | 4.8 | 16.1 | 0.00 | 0.00 | 0.00 | 60 | 1020.2 |
| 20260510191559 | 15 | 343 | 3.2 | 12.9 | 0.00 | 0.00 | 0.00 | 61 | 1020.1 |
| 20260510191329 | 15 | 297 | 1.6 | 11.3 | 0.00 | 0.00 | 0.00 | 61 | 1020.0 |
| 20260510190554 | 15 | 10 | 3.2 | 11.3 | 0.00 | 0.00 | 0.00 | 62 | 1020.0 |
| 20260510190028 | 15 | 300 | 4.8 | 11.3 | 0.00 | 0.00 | 0.00 | 60 | 1019.9 |
| 20260510185459 | 15 | 335 | 4.8 | 12.9 | 0.00 | 0.00 | 0.00 | 60 | 1019.9 |
| 20260510184956 | 15 | 345 | 4.8 | 19.3 | 0.00 | 0.00 | 0.00 | 61 | 1019.9 |
| 20260510184454 | 15 | 329 | 3.2 | 19.3 | 0.00 | 0.00 | 0.00 | 61 | 1020.0 |
| 20260510183945 | 15 | 12 | 1.6 | 14.5 | 0.00 | 0.00 | 0.00 | 61 | 1019.9 |
| 20260510183445 | 15 | 278 | 1.6 | 8.0 | 0.00 | 0.00 | 0.00 | 62 | 1020.0 |
| 20260510182933 | 15 | 353 | 3.2 | 9.7 | 0.00 | 0.00 | 0.00 | 61 | 1019.9 |
| 20260510182435 | 15 | 301 | 3.2 | 9.7 | 0.00 | 0.00 | 0.00 | 61 | 1020.0 |
| 20260510182137 | 15 | 283 | 3.2 | 11.3 | 0.00 | 0.00 | 0.00 | 60 | 1020.0 |
| 20260510181624 | 15 | 295 | 4.8 | 14.5 | 0.00 | 0.00 | 0.00 | 59 | 1020.1 |
| 20260510180853 | 16 | 274 | 4.8 | 14.5 | 0.00 | 0.00 | 0.00 | 58 | 1020.0 |
| 20260510180327 | 17 | 291 | 4.8 | 17.7 | 0.00 | 0.00 | 0.00 | 57 | 1020.1 |
| 20260510175800 | 17 | 5 | 4.8 | 17.7 | 0.00 | 0.00 | 0.00 | 58 | 1020.0 |
| 20260510175521 | 17 | 357 | 6.4 | 17.7 | 0.00 | 0.00 | 0.00 | 60 | 1020.0 |
| 20260510174748 | 16 | 356 | 6.4 | 17.7 | 0.00 | 0.00 | 0.00 | 59 | 1019.9 |
| 20260510174517 | 16 | 323 | 6.4 | 14.5 | 0.00 | 0.00 | 0.00 | 60 | 1019.9 |
| 20260510173743 | 16 | 305 | 6.4 | 14.5 | 0.00 | 0.00 | 0.00 | 61 | 1020.0 |
| 20260510173237 | 16 | 325 | 4.8 | 16.1 | 0.00 | 0.00 | 0.00 | 61 | 1020.1 |
| 20260510173005 | 15 | 2 | 4.8 | 16.1 | 0.00 | 0.00 | 0.00 | 64 | 1020.0 |
| 20260510172207 | 15 | 297 | 6.4 | 16.1 | 0.00 | 0.00 | 0.00 | 64 | 1020.1 |
| 20260510171702 | 15 | 335 | 8.0 | 16.1 | 0.00 | 0.00 | 0.00 | 62 | 1020.1 |
| 20260510171430 | 15 | 349 | 9.7 | 19.3 | 0.00 | 0.00 | 0.00 | 62 | 1020.1 |
| 20260510170652 | 16 | 344 | 8.0 | 19.3 | 0.00 | 0.00 | 0.00 | 62 | 1020.0 |
| 20260510170146 | 15 | 287 | 6.4 | 16.1 | 0.00 | 0.00 | 0.00 | 65 | 1020.0 |
| 20260510165639 | 15 | 296 | 4.8 | 16.1 | 0.00 | 0.00 | 0.00 | 64 | 1020.2 |
| 20260510165114 | 15 | 321 | 4.8 | 11.3 | 0.00 | 0.00 | 0.00 | 66 | 1020.1 |
| 20260510164610 | 14 | 227 | 6.4 | 11.3 | 0.00 | 0.00 | 0.00 | 66 | 1020.4 |
| 20260510164104 | 14 | 233 | 6.4 | 16.1 | 0.00 | 0.00 | 0.00 | 66 | 1020.3 |
| 20260510163601 | 15 | 270 | 4.8 | 16.1 | 0.00 | 0.00 | 0.00 | 66 | 1020.5 |
| 20260510163049 | 14 | 229 | 6.4 | 14.5 | 0.00 | 0.00 | 0.00 | 68 | 1020.5 |
| 20260510162824 | 13 | 286 | 4.8 | 14.5 | 0.00 | 0.00 | 0.00 | 69 | 1020.5 |
| 20260510162027 | 13 | 284 | 4.8 | 11.3 | 0.00 | 0.00 | 0.00 | 71 | 1020.8 |
| 20260510161527 | 13 | 257 | 6.4 | 11.3 | 0.00 | 0.00 | 0.00 | 70 | 1020.8 |
| 20260510161027 | 13 | 266 | 4.8 | 11.3 | 0.00 | 0.00 | 0.00 | 71 | 1020.8 |
| 20260510160523 | 13 | 298 | 4.8 | 11.3 | 0.00 | 0.00 | 0.00 | 72 | 1020.9 |
| 20260510160021 | 13 | 277 | 4.8 | 11.3 | 0.00 | 0.00 | 0.00 | 71 | 1021.1 |
| 20260510155456 | 13 | 256 | 4.8 | 14.5 | 0.00 | 0.00 | 0.00 | 71 | 1021.2 |
| 20260510155158 | 13 | 230 | 6.4 | 12.9 | 0.00 | 0.00 | 0.00 | 71 | 1021.2 |
| 20260510154358 | 13 | 270 | 6.4 | 14.5 | 0.00 | 0.00 | 0.00 | 72 | 1021.2 |
| 20260510154124 | 13 | 257 | 4.8 | 9.7 | 0.00 | 0.00 | 0.00 | 71 | 1021.2 |
| 20260510153349 | 13 | 225 | 4.8 | 14.5 | 0.00 | 0.00 | 0.00 | 70 | 1021.3 |
| 20260510152845 | 13 | 272 | 6.4 | 16.1 | 0.00 | 0.00 | 0.00 | 71 | 1021.5 |
| 20260510152318 | 13 | 256 | 6.4 | 16.1 | 0.00 | 0.00 | 0.00 | 72 | 1021.6 |
| 20260510151811 | 13 | 318 | 4.8 | 16.1 | 0.00 | 0.00 | 0.00 | 71 | 1021.6 |
| 20260510151308 | 13 | 356 | 4.8 | 16.1 | 0.00 | 0.00 | 0.00 | 71 | 1021.4 |
| 20260510151015 | 13 | 328 | 8.0 | 20.9 | 0.00 | 0.00 | 0.00 | 72 | 1021.6 |
| 20260510150214 | 13 | 278 | 6.4 | 20.9 | 0.00 | 0.00 | 0.00 | 73 | 1021.7 |
| 20260510145649 | 13 | 307 | 4.8 | 9.7 | 0.00 | 0.00 | 0.00 | 72 | 1021.6 |
| 20260510145148 | 13 | 341 | 4.8 | 9.7 | 0.00 | 0.00 | 0.00 | 72 | 1021.7 |
| 20260510144909 | 13 | 339 | 3.2 | 9.7 | 0.00 | 0.00 | 0.00 | 73 | 1021.9 |
| 20260510144139 | 12 | 9 | 4.8 | 12.9 | 0.00 | 0.00 | 0.00 | 74 | 1021.9 |
| 20260510143609 | 12 | 278 | 4.8 | 9.7 | 0.00 | 0.00 | 0.00 | 72 | 1022.0 |
| 20260510143046 | 12 | 16 | 4.8 | 11.3 | 0.00 | 0.00 | 0.00 | 76 | 1022.2 |
| 20260510142812 | 12 | 330 | 4.8 | 11.3 | 0.00 | 0.00 | 0.00 | 77 | 1022.3 |
| 20260510142308 | 12 | 316 | 4.8 | 11.3 | 0.00 | 0.00 | 0.00 | 78 | 1022.3 |
| 20260510141514 | 12 | 310 | 4.8 | 11.3 | 0.00 | 0.00 | 0.00 | 78 | 1022.3 |
| 20260510141007 | 12 | 244 | 4.8 | 11.3 | 0.00 | 0.00 | 0.00 | 79 | 1022.5 |
| 20260510140455 | 12 | 269 | 3.2 | 14.5 | 0.00 | 0.00 | 0.00 | 79 | 1022.3 |
| 20260510135955 | 11 | 335 | 3.2 | 14.5 | 0.00 | 0.00 | 0.00 | 82 | 1022.5 |
| 20260510135426 | 11 | 305 | 4.8 | 12.9 | 0.00 | 0.00 | 0.00 | 82 | 1022.4 |
| 20260510134923 | 11 | 235 | 4.8 | 12.9 | 0.00 | 0.00 | 0.00 | 81 | 1022.5 |
| 20260510134420 | 11 | 235 | 4.8 | 12.9 | 0.00 | 0.00 | 0.00 | 82 | 1022.6 |
| 20260510134137 | 11 | 263 | 3.2 | 12.9 | 0.00 | 0.00 | 0.00 | 82 | 1022.6 |
| 20260510133406 | 11 | 250 | 3.2 | 9.7 | 0.00 | 0.00 | 0.00 | 82 | 1022.6 |
| 20260510132902 | 11 | 242 | 1.6 | 9.7 | 0.00 | 0.00 | 0.00 | 82 | 1022.7 |
| 20260510132840 | 11 | 253 | 4.8 | 11.3 | 0.00 | 0.00 | 0.00 | 83 | 1022.5 |
| 20260510131832 | 11 | 283 | 6.4 | 11.3 | 0.00 | 0.00 | 0.00 | 83 | 1022.5 |
| 20260510131335 | 11 | 287 | 4.8 | 9.7 | 0.00 | 0.00 | 0.00 | 84 | 1022.5 |
| 20260510130807 | 11 | 260 | 3.2 | 9.7 | 0.00 | 0.00 | 0.00 | 86 | 1022.5 |
| 20260510130256 | 10 | 321 | 3.2 | 8.0 | 0.00 | 0.00 | 0.00 | 88 | 1022.4 |
| 20260510125754 | 10 | 256 | 3.2 | 8.0 | 0.00 | 0.00 | 0.00 | 87 | 1022.4 |
| 20260510125255 | 10 | 289 | 3.2 | 8.0 | 0.00 | 0.00 | 0.00 | 87 | 1022.4 |
| 20260510124754 | 10 | 235 | 3.2 | 8.0 | 0.00 | 0.00 | 0.00 | 87 | 1022.4 |
| 20260510124245 | 10 | 239 | 3.2 | 11.3 | 0.00 | 0.00 | 0.00 | 87 | 1022.4 |
| 20260510123742 | 10 | 270 | 4.8 | 11.3 | 0.00 | 0.00 | 0.00 | 88 | 1022.5 |
| 20260510123239 | 10 | 295 | 3.2 | 11.3 | 0.00 | 0.00 | 0.00 | 89 | 1022.5 |
| 20260510122732 | 10 | 270 | 1.6 | 11.3 | 0.00 | 0.00 | 0.00 | 89 | 1022.5 |
| 20260510122211 | 10 | 251 | 1.6 | 6.4 | 0.00 | 0.00 | 0.00 | 91 | 1022.7 |
| 20260510121645 | 10 | 315 | 1.6 | 6.4 | 0.00 | 0.00 | 0.00 | 92 | 1022.8 |
| 20260510121143 | 10 | 271 | 1.6 | 6.4 | 0.00 | 0.00 | 0.00 | 92 | 1022.7 |
| 20260510120619 | 10 | 187 | 0.0 | 3.2 | 0.00 | 0.00 | 0.00 | 93 | 1022.6 |
| 20260510120109 | 10 | 312 | 0.0 | 3.2 | 0.00 | 0.00 | 0.00 | 92 | 1022.7 |
| 20260510115536 | 9 | 266 | 1.6 | 3.2 | 0.00 | 0.00 | 0.00 | 92 | 1022.7 |
| 20260510115010 | 9 | 328 | 1.6 | 6.4 | 0.00 | 0.00 | 0.00 | 92 | 1022.7 |
| 20260510114449 | 9 | 344 | 1.6 | 6.4 | 0.00 | 0.00 | 0.00 | 92 | 1022.7 |
| 20260510113930 | 9 | 346 | 1.6 | 6.4 | 0.00 | 0.00 | 0.00 | 91 | 1022.9 |
| 20260510113403 | 9 | 314 | 1.6 | 6.4 | 0.00 | 0.00 | 0.00 | 91 | 1022.8 |
| 20260510113352 | 9 | 29 | 1.6 | 6.4 | 0.00 | 0.00 | 0.00 | 91 | 1022.8 |
| 20260510112354 | 9 | 287 | 3.2 | 6.4 | 0.00 | 0.00 | 0.00 | 90 | 1022.7 |
| 20260510112347 | 9 | 319 | 3.2 | 6.4 | 0.00 | 0.00 | 0.00 | 91 | 1022.8 |
| 20260510111954 | 9 | 302 | 1.6 | 4.8 | 0.00 | 0.00 | 0.00 | 90 | 1022.8 |
| 20260510110839 | 9 | 262 | 3.2 | 9.7 | 0.00 | 0.00 | 0.00 | 89 | 1022.9 |
| 20260510110320 | 10 | 259 | 4.8 | 9.7 | 0.00 | 0.00 | 0.00 | 88 | 1022.7 |
| 20260510105819 | 10 | 251 | 3.2 | 6.4 | 0.00 | 0.00 | 0.00 | 88 | 1022.7 |
| 20260510105256 | 10 | 229 | 3.2 | 6.4 | 0.00 | 0.00 | 0.00 | 87 | 1022.7 |
| 20260510104757 | 10 | 237 | 1.6 | 6.4 | 0.00 | 0.00 | 0.00 | 88 | 1022.6 |
| 20260510104245 | 10 | 256 | 0.0 | 3.2 | 0.00 | 0.00 | 0.00 | 88 | 1022.5 |
| 20260510103738 | 10 | 248 | 0.0 | 3.2 | 0.00 | 0.00 | 0.00 | 87 | 1022.4 |
| 20260510103226 | 10 | 251 | 1.6 | 4.8 | 0.00 | 0.00 | 0.00 | 88 | 1022.5 |
| 20260510102716 | 10 | 311 | 1.6 | 4.8 | 0.00 | 0.00 | 0.00 | 87 | 1022.4 |
| 20260510102216 | 10 | 258 | 1.6 | 4.8 | 0.00 | 0.00 | 0.00 | 87 | 1022.3 |
| 20260510101710 | 10 | 278 | 1.6 | 4.8 | 0.00 | 0.00 | 0.00 | 87 | 1022.2 |
| 20260510101211 | 10 | 303 | 1.6 | 6.4 | 0.00 | 0.00 | 0.00 | 87 | 1022.3 |
| 20260510100643 | 10 | 272 | 1.6 | 6.4 | 0.00 | 0.00 | 0.00 | 87 | 1022.2 |
| 20260510100136 | 10 | 228 | 1.6 | 4.8 | 0.00 | 0.00 | 0.00 | 87 | 1022.2 |
| 20260510095900 | 10 | 224 | 1.6 | 4.8 | 0.00 | 0.00 | 0.00 | 86 | 1022.1 |
| 20260510095350 | 10 | 277 | 3.2 | 6.4 | 0.00 | 0.00 | 0.00 | 87 | 1022.0 |
| 20260510094558 | 10 | 347 | 3.2 | 6.4 | 0.00 | 0.00 | 0.00 | 87 | 1021.9 |
| 20260510094052 | 10 | 345 | 1.6 | 3.2 | 0.00 | 0.00 | 0.00 | 87 | 1021.8 |
| 20260510093532 | 10 | 303 | 0.0 | 3.2 | 0.00 | 0.00 | 0.00 | 88 | 1021.7 |
| 20260510093022 | 10 | 239 | 0.0 | 1.6 | 0.00 | 0.00 | 0.00 | 87 | 1021.7 |
| 20260510092520 | 10 | 239 | 0.0 | 1.6 | 0.00 | 0.00 | 0.00 | 87 | 1021.6 |
| 20260510092018 | 10 | 239 | 0.0 | 1.6 | 0.00 | 0.00 | 0.00 | 86 | 1021.4 |
| 20260510091515 | 10 | 239 | 0.0 | 1.6 | 0.00 | 0.00 | 0.00 | 86 | 1021.5 |
| 20260510090950 | 10 | 239 | 0.0 | 1.6 | 0.00 | 0.00 | 0.00 | 85 | 1021.4 |
| 20260510090451 | 9 | 257 | 0.0 | 1.6 | 0.00 | 0.00 | 0.00 | 86 | 1021.4 |
| 20260510085940 | 10 | 257 | 0.0 | 3.2 | 0.00 | 0.00 | 0.00 | 86 | 1021.2 |
| 20260510085438 | 10 | 257 | 0.0 | 3.2 | 0.00 | 0.00 | 0.00 | 86 | 1021.1 |
| 20260510084922 | 10 | 257 | 0.0 | 4.8 | 0.00 | 0.00 | 0.00 | 87 | 1021.2 |
| 20260510084418 | 10 | 349 | 0.0 | 4.8 | 0.00 | 0.00 | 0.00 | 87 | 1021.0 |
| 20260510083916 | 10 | 343 | 0.0 | 3.2 | 0.00 | 0.00 | 0.00 | 87 | 1021.1 |
| 20260510083417 | 10 | 291 | 0.0 | 3.2 | 0.00 | 0.00 | 0.00 | 87 | 1020.9 |
| 20260510083125 | 10 | 2 | 1.6 | 4.8 | 0.00 | 0.00 | 0.00 | 86 | 1020.9 |
| 20260510082356 | 10 | 343 | 1.6 | 4.8 | 0.00 | 0.00 | 0.00 | 86 | 1020.9 |
| 20260510081847 | 10 | 332 | 1.6 | 4.8 | 0.00 | 0.00 | 0.00 | 85 | 1020.9 |
| 20260510081334 | 10 | 315 | 1.6 | 6.4 | 0.00 | 0.00 | 0.00 | 85 | 1020.9 |
| 20260510080807 | 10 | 342 | 1.6 | 6.4 | 0.00 | 0.00 | 0.00 | 85 | 1020.8 |
| 20260510080259 | 10 | 341 | 0.0 | 6.4 | 0.00 | 0.00 | 0.00 | 86 | 1020.8 |
| 20260510075745 | 10 | 276 | 0.0 | 1.6 | 0.00 | 0.00 | 0.00 | 86 | 1020.9 |
| 20260510075239 | 10 | 271 | 0.0 | 3.2 | 0.00 | 0.00 | 0.00 | 86 | 1020.8 |
| 20260510075007 | 10 | 243 | 1.6 | 3.2 | 0.00 | 0.00 | 0.00 | 86 | 1020.9 |
| 20260510074208 | 10 | 243 | 3.2 | 9.7 | 0.00 | 0.00 | 0.00 | 85 | 1021.0 |
| 20260510073707 | 10 | 245 | 4.8 | 9.7 | 0.00 | 0.00 | 0.00 | 85 | 1021.0 |
| 20260510073204 | 10 | 241 | 4.8 | 14.5 | 0.00 | 0.00 | 0.00 | 84 | 1021.0 |
| 20260510072652 | 10 | 233 | 4.8 | 14.5 | 0.00 | 0.00 | 0.00 | 82 | 1021.0 |
| 20260510072135 | 10 | 223 | 3.2 | 8.0 | 0.00 | 0.00 | 0.00 | 78 | 1021.0 |
| 20260510071624 | 10 | 314 | 3.2 | 8.0 | 0.00 | 0.00 | 0.00 | 78 | 1020.9 |
| 20260510071124 | 10 | 9 | 4.8 | 9.7 | 0.00 | 0.00 | 0.00 | 79 | 1020.8 |
| 20260510070623 | 10 | 353 | 3.2 | 9.7 | 0.00 | 0.00 | 0.00 | 78 | 1020.9 |
| 20260510070124 | 10 | 330 | 3.2 | 8.0 | 0.00 | 0.00 | 0.00 | 78 | 1021.0 |
| 20260510065621 | 10 | 329 | 1.6 | 8.0 | 0.00 | 0.00 | 0.00 | 78 | 1021.0 |
| 20260510065122 | 10 | 341 | 1.6 | 12.9 | 0.00 | 0.00 | 0.00 | 78 | 1021.0 |
| 20260510064622 | 10 | 291 | 3.2 | 12.9 | 0.00 | 0.00 | 0.00 | 78 | 1021.0 |
| 20260510064120 | 10 | 324 | 3.2 | 12.9 | 0.00 | 0.00 | 0.00 | 78 | 1021.0 |
| 20260510063850 | 10 | 291 | 3.2 | 12.9 | 0.00 | 0.00 | 0.00 | 78 | 1020.8 |
| 20260510063323 | 10 | 319 | 3.2 | 11.3 | 0.00 | 0.00 | 0.00 | 78 | 1021.0 |
| 20260510062559 | 10 | 17 | 1.6 | 6.4 | 0.00 | 0.00 | 0.00 | 79 | 1021.2 |
| 20260510062552 | 10 | 355 | 3.2 | 11.3 | 0.00 | 0.00 | 0.00 | 79 | 1021.1 |
| 20260510061530 | 10 | 357 | 1.6 | 4.8 | 0.00 | 0.00 | 0.00 | 79 | 1021.2 |
| 20260510061030 | 10 | 314 | 0.0 | 4.8 | 0.00 | 0.00 | 0.00 | 79 | 1021.4 |
| 20260510060526 | 10 | 8 | 1.6 | 11.3 | 0.00 | 0.00 | 0.00 | 79 | 1021.5 |
| 20260510060022 | 10 | 356 | 3.2 | 11.3 | 0.00 | 0.00 | 0.00 | 80 | 1021.4 |
| 20260510055520 | 10 | 1 | 3.2 | 9.7 | 0.00 | 0.00 | 0.00 | 79 | 1021.5 |
| 20260510055018 | 10 | 310 | 3.2 | 9.7 | 0.00 | 0.00 | 0.00 | 80 | 1021.6 |
| 20260510054517 | 10 | 316 | 1.6 | 8.0 | 0.00 | 0.00 | 0.00 | 80 | 1021.6 |
| 20260510054247 | 10 | 298 | 0.0 | 4.8 | 0.00 | 0.00 | 0.00 | 81 | 1021.5 |
| 20260510053451 | 10 | 8 | 1.6 | 8.0 | 0.00 | 0.00 | 0.00 | 81 | 1021.5 |
| 20260510052929 | 10 | 337 | 1.6 | 8.0 | 0.00 | 0.00 | 0.00 | 81 | 1021.6 |
| 20260510052420 | 10 | 291 | 3.2 | 9.7 | 0.00 | 0.00 | 0.00 | 81 | 1021.4 |
| 20260510051920 | 10 | 331 | 4.8 | 9.7 | 0.00 | 0.00 | 0.00 | 81 | 1021.4 |
| 20260510051409 | 10 | 348 | 3.2 | 8.0 | 0.00 | 0.00 | 0.00 | 82 | 1021.4 |
| 20260510050908 | 10 | 2 | 1.6 | 6.4 | 0.00 | 0.00 | 0.00 | 83 | 1021.5 |
| 20260510050408 | 9 | 8 | 3.2 | 9.7 | 0.00 | 0.00 | 0.00 | 84 | 1021.5 |
| 20260510045904 | 9 | 332 | 3.2 | 9.7 | 0.00 | 0.00 | 0.00 | 84 | 1021.5 |
| 20260510045404 | 9 | 322 | 1.6 | 8.0 | 0.00 | 0.00 | 0.00 | 85 | 1021.5 |
| 20260510044905 | 9 | 338 | 1.6 | 6.4 | 0.00 | 0.00 | 0.00 | 85 | 1021.4 |
| 20260510044404 | 9 | 350 | 3.2 | 9.7 | 0.00 | 0.00 | 0.00 | 85 | 1021.4 |
| 20260510044345 | 9 | 287 | 1.6 | 4.8 | 0.00 | 0.00 | 0.00 | 86 | 1021.4 |
| 20260510043949 | 9 | 342 | 1.6 | 9.7 | 0.00 | 0.00 | 0.00 | 85 | 1021.3 |
| 20260510043111 | 9 | 301 | 1.6 | 4.8 | 0.00 | 0.00 | 0.00 | 86 | 1021.4 |
| 20260510042336 | 9 | 314 | 1.6 | 6.4 | 0.00 | 0.00 | 0.00 | 85 | 1021.5 |
| 20260510041836 | 9 | 285 | 3.2 | 6.4 | 0.00 | 0.00 | 0.00 | 85 | 1021.6 |
| 20260510041323 | 9 | 316 | 1.6 | 6.4 | 0.00 | 0.00 | 0.00 | 85 | 1021.4 |
| 20260510040754 | 9 | 287 | 1.6 | 4.8 | 0.00 | 0.00 | 0.00 | 85 | 1021.6 |
| 20260510040523 | 8 | 280 | 1.6 | 6.4 | 0.00 | 0.00 | 0.00 | 85 | 1021.6 |
| 20260510035751 | 8 | 290 | 1.6 | 6.4 | 0.00 | 0.00 | 0.00 | 85 | 1021.5 |
| 20260510035248 | 8 | 292 | 1.6 | 4.8 | 0.00 | 0.00 | 0.00 | 85 | 1021.5 |
| 20260510034736 | 8 | 339 | 1.6 | 6.4 | 0.00 | 0.00 | 0.00 | 86 | 1021.5 |
| 20260510034220 | 8 | 25 | 1.6 | 6.4 | 0.00 | 0.00 | 0.00 | 86 | 1021.6 |
| 20260510033712 | 8 | 8 | 1.6 | 9.7 | 0.00 | 0.00 | 0.00 | 87 | 1021.5 |
| 20260510033208 | 8 | 8 | 3.2 | 9.7 | 0.00 | 0.00 | 0.00 | 88 | 1021.7 |
| 20260510032644 | 7 | 10 | 1.6 | 6.4 | 0.00 | 0.00 | 0.00 | 89 | 1021.6 |
| 20260510032146 | 7 | 331 | 0.0 | 4.8 | 0.00 | 0.00 | 0.00 | 89 | 1021.6 |
| 20260510031613 | 7 | 343 | 0.0 | 4.8 | 0.00 | 0.00 | 0.00 | 89 | 1021.7 |
| 20260510031104 | 7 | 262 | 0.0 | 4.8 | 0.00 | 0.00 | 0.00 | 89 | 1021.7 |
| 20260510030839 | 7 | 276 | 1.6 | 4.8 | 0.00 | 0.00 | 0.00 | 89 | 1021.6 |
| 20260510030058 | 7 | 291 | 0.0 | 4.8 | 0.00 | 0.00 | 0.00 | 89 | 1021.6 |
| 20260510025546 | 7 | 310 | 1.6 | 3.2 | 0.00 | 0.00 | 0.00 | 88 | 1021.5 |
| 20260510025047 | 7 | 287 | 1.6 | 4.8 | 0.00 | 0.00 | 0.00 | 88 | 1021.5 |
| 20260510024521 | 8 | 274 | 0.0 | 4.8 | 0.00 | 0.00 | 0.00 | 87 | 1021.4 |
| 20260510024021 | 8 | 301 | 0.0 | 4.8 | 0.00 | 0.00 | 0.00 | 87 | 1021.3 |
| 20260510023518 | 8 | 301 | 1.6 | 4.8 | 0.00 | 0.00 | 0.00 | 86 | 1021.2 |
| 20260510023004 | 8 | 260 | 1.6 | 4.8 | 0.00 | 0.00 | 0.00 | 86 | 1021.3 |
| 20260510022437 | 8 | 273 | 1.6 | 4.8 | 0.00 | 0.00 | 0.00 | 86 | 1021.2 |
| 20260510021920 | 8 | 293 | 1.6 | 4.8 | 0.00 | 0.00 | 0.00 | 86 | 1021.2 |
| 20260510021421 | 8 | 31 | 3.2 | 4.8 | 0.00 | 0.00 | 0.00 | 86 | 1021.3 |
| 20260510020920 | 8 | 45 | 3.2 | 6.4 | 0.00 | 0.00 | 0.00 | 86 | 1021.4 |
| 20260510020623 | 8 | 22 | 1.6 | 6.4 | 0.00 | 0.00 | 0.00 | 87 | 1021.4 |
| 20260510015847 | 8 | 40 | 1.6 | 4.8 | 0.00 | 0.00 | 0.00 | 88 | 1021.3 |
| 20260510015335 | 8 | 285 | 1.6 | 6.4 | 0.00 | 0.00 | 0.00 | 88 | 1021.3 |
| 20260510014835 | 8 | 276 | 1.6 | 6.4 | 0.00 | 0.00 | 0.00 | 88 | 1021.3 |
| 20260510014329 | 8 | 274 | 0.0 | 4.8 | 0.00 | 0.00 | 0.00 | 87 | 1021.1 |
| 20260510013801 | 8 | 272 | 0.0 | 3.2 | 0.00 | 0.00 | 0.00 | 86 | 1021.0 |
| 20260510013234 | 8 | 253 | 0.0 | 3.2 | 0.00 | 0.00 | 0.00 | 84 | 1021.0 |
| 20260510012733 | 8 | 231 | 0.0 | 3.2 | 0.00 | 0.00 | 0.00 | 84 | 1020.9 |
| 20260510012226 | 8 | 297 | 0.0 | 1.6 | 0.00 | 0.00 | 0.00 | 83 | 1021.0 |
| 20260510011658 | 8 | 288 | 0.0 | 0.0 | 0.00 | 0.00 | 0.00 | 82 | 1020.8 |
| 20260510011154 | 9 | 274 | 0.0 | 0.0 | 0.00 | 0.00 | 0.00 | 81 | 1020.8 |
| 20260510010921 | 9 | 274 | 0.0 | 0.0 | 0.00 | 0.00 | 0.00 | 80 | 1020.7 |
| 20260510010144 | 9 | 274 | 0.0 | 1.6 | 0.00 | 0.00 | 0.00 | 80 | 1020.5 |
| 20260510005641 | 10 | 274 | 0.0 | 3.2 | 0.00 | 0.00 | 0.00 | 80 | 1020.6 |
| 20260510005114 | 10 | 274 | 0.0 | 3.2 | 0.00 | 0.00 | 0.00 | 79 | 1020.7 |
| 20260510004547 | 10 | 237 | 0.0 | 0.0 | 0.00 | 0.00 | 0.00 | 78 | 1020.6 |
| 20260510004043 | 10 | 237 | 0.0 | 0.0 | 0.00 | 0.00 | 0.00 | 77 | 1020.7 |
| 20260510003535 | 10 | 237 | 0.0 | 0.0 | 0.00 | 0.00 | 0.00 | 76 | 1020.6 |
| 20260510003032 | 11 | 237 | 0.0 | 0.0 | 0.00 | 0.00 | 0.00 | 76 | 1020.7 |
| 20260510002529 | 11 | 272 | 1.6 | 4.8 | 0.00 | 0.00 | 0.00 | 76 | 1020.7 |
| 20260510002003 | 11 | 272 | 3.2 | 11.3 | 0.00 | 0.00 | 0.00 | 76 | 1020.7 |
| 20260510001455 | 11 | 229 | 3.2 | 14.5 | 0.00 | 0.00 | 0.00 | 76 | 1020.6 |
| 20260510000952 | 11 | 301 | 3.2 | 14.5 | 0.00 | 0.00 | 0.00 | 76 | 1020.4 |
| 20260510000427 | 11 | 276 | 3.2 | 12.9 | 0.00 | 0.00 | 0.00 | 76 | 1020.4 |
| 20260509235910 | 11 | 302 | 1.6 | 12.9 | 0.00 | 0.00 | 0.00 | 76 | 1020.2 |
| 20260509235847 | 11 | 317 | 4.8 | 16.1 | 0.00 | 0.00 | 0.00 | 75 | 1020.1 |
| 20260509234840 | 11 | 271 | 4.8 | 16.1 | 0.00 | 0.00 | 0.00 | 75 | 1020.0 |
| 20260509234327 | 11 | 278 | 3.2 | 12.9 | 0.00 | 0.00 | 0.00 | 74 | 1019.9 |
| 20260509233822 | 11 | 229 | 4.8 | 9.7 | 0.00 | 0.00 | 0.00 | 74 | 1019.7 |
| 20260509233254 | 11 | 295 | 4.8 | 11.3 | 0.00 | 0.00 | 0.00 | 74 | 1019.8 |
| 20260509232746 | 11 | 247 | 6.4 | 14.5 | 0.00 | 0.00 | 0.00 | 74 | 1019.8 |
| 20260509232242 | 11 | 265 | 4.8 | 14.5 | 0.00 | 0.00 | 0.00 | 75 | 1019.8 |
| 20260509231715 | 11 | 294 | 3.2 | 12.9 | 0.00 | 0.00 | 0.00 | 75 | 1019.7 |
| 20260509231149 | 10 | 262 | 0.0 | 4.8 | 0.00 | 0.00 | 0.00 | 76 | 1019.3 |
| 20260509230646 | 10 | 242 | 0.0 | 3.2 | 0.00 | 0.00 | 0.00 | 77 | 1019.2 |
| 20260509230145 | 11 | 273 | 0.0 | 3.2 | 0.00 | 0.00 | 0.00 | 77 | 1019.1 |
| 20260509225632 | 11 | 240 | 0.0 | 3.2 | 0.00 | 0.00 | 0.00 | 76 | 1019.0 |
| 20260509225133 | 11 | 253 | 0.0 | 3.2 | 0.00 | 0.00 | 0.00 | 75 | 1018.9 |
| 20260509224837 | 11 | 264 | 0.0 | 3.2 | 0.00 | 0.00 | 0.00 | 74 | 1018.6 |
| 20260509224100 | 11 | 261 | 0.0 | 4.8 | 0.00 | 0.00 | 0.00 | 72 | 1018.5 |
| 20260509223554 | 12 | 298 | 1.6 | 4.8 | 0.00 | 0.00 | 0.00 | 72 | 1018.4 |
| 20260509223258 | 12 | 292 | 1.6 | 4.8 | 0.00 | 0.00 | 0.00 | 71 | 1018.3 |
| 20260509222523 | 12 | 257 | 1.6 | 4.8 | 0.00 | 0.00 | 0.00 | 72 | 1018.4 |
| 20260509222021 | 12 | 3 | 3.2 | 6.4 | 0.00 | 0.00 | 0.00 | 71 | 1018.2 |
| 20260509221510 | 12 | 297 | 3.2 | 11.3 | 0.00 | 0.00 | 0.00 | 69 | 1018.2 |
| 20260509221008 | 13 | 292 | 1.6 | 11.3 | 0.00 | 0.00 | 0.00 | 69 | 1018.2 |
| 20260509220456 | 13 | 301 | 1.6 | 9.7 | 0.00 | 0.00 | 0.00 | 69 | 1018.1 |
| 20260509220226 | 13 | 278 | 3.2 | 9.7 | 0.00 | 0.00 | 0.00 | 69 | 1018.0 |
| 20260509215428 | 13 | 278 | 6.4 | 14.5 | 0.00 | 0.00 | 0.00 | 70 | 1018.0 |
| 20260509214925 | 13 | 276 | 4.8 | 12.9 | 0.00 | 0.00 | 0.00 | 72 | 1017.8 |